This demonstration page uses our WeatherBlox Daily Observations layout. Learn more.

Left ArrowRight Arrow

36.17497, -115.13722

Hourly Observations for September 15, 2017

Temp ( °F °C ) Dew Point ( °F °C ) Humidity (%) Winds ( mph kmh ) Pressure ( in mb ) Visibility ( mi km ) Precip ( " mm )
12:53 am 00:53 Clear 78 25.6 41 5 27 27 Calm 29.69 1005 10 16 0.00 0.00
1:53 am 01:53 Clear 77 25 46 7.8 33 33 SSE 7 11 29.69 1005 10 16 0.00 0.00
2:53 am 02:53 Clear 76 24.4 46 7.8 35 35 S 9 15 29.69 1006 10 16 0.00 0.00
3:53 am 03:53 Clear 74 23.3 45 7.2 36 36 SE 7 11 29.70 1006 10 16 0.00 0.00
4:53 am 04:53 Clear 73 22.8 44 6.7 35 35 S 10 17 29.71 1006 10 16 0.00 0.00
5:53 am 05:53 Clear 71 21.7 44 6.7 38 38 E 3 6 29.74 1007 10 16 0.00 0.00
6:53 am 06:53 Sunny 71 21.7 45 7.2 39 39 N 7 11 29.75 1008 10 16 0.00 0.00
7:53 am 07:53 Sunny 73 22.8 45 7.2 37 37 ESE 7 11 29.77 1008 10 16 0.00 0.00
8:53 am 08:53 Sunny 75 23.9 45 7.2 34 34 SE 6 9 29.78 1009 10 16 0.00 0.00
9:53 am 09:53 Sunny 78 25.6 45 7.2 31 31 S 7 11 29.79 1009 10 16 0.00 0.00
10:53 am 10:53 Sunny 80 26.7 44 6.7 28 28 S 6 9 29.79 1009 10 16 0.00 0.00
11:53 am 11:53 Sunny 83 28.3 44 6.7 25 25 ESE 8 13 29.78 1008 10 16 0.00 0.00
12:53 pm 12:53 Sunny 84 28.9 44 6.7 25 25 SW 8 13 29.77 1008 10 16 0.00 0.00
1:53 pm 13:53 Sunny 87 30.6 42 5.6 21 21 ESE 5 7 29.75 1007 10 16 0.00 0.00
2:53 pm 14:53 Sunny 88 31.1 41 5 19 19 E 5 7 29.73 1007 10 16 0.00 0.00
3:53 pm 15:53 Partly Cloudy 88 31.1 41 5 19 19 Calm 29.72 1006 10 16 0.00 0.00
4:53 pm 16:53 Mostly Sunny 88 31.1 42 5.6 20 20 SSW 10 17 29.72 1006 10 16 0.00 0.00
5:53 pm 17:53 Sunny 87 30.6 42 5.6 21 21 SW 9 15 29.72 1007 10 16 0.00 0.00
6:53 pm 18:53 Clear 86 30 43 6.1 22 22 SSW 7 11 29.73 1007 10 16 0.00 0.00
7:53 pm 19:53 Clear 86 30 43 6.1 22 22 SSW 5 7 29.74 1007 10 16 0.00 0.00
8:53 pm 20:53 Clear 84 28.9 44 6.7 25 25 Calm 29.76 1008 10 16 0.00 0.00
9:53 pm 21:53 Clear 84 28.9 28 -2.2 13 13 NNW 9 15 29.78 1008 10 16 0.00 0.00
10:53 pm 22:53 Clear 81 27.2 28 -2.2 14 14 N 9 15 29.79 1009 10 16 0.00 0.00
11:53 pm 23:53 Clear 80 26.7 28 -2.2 15 15 NNE 13 20 29.80 1009 10 16 0.00 0.00

Powered by AerisWeather